Tallahassee, FL

3:57 PM EDT on June 23, 2017 (GMT -0400)
Tallahassee Regional

Weather History for KTLH - January, 2014

Change the Weather History Date:

Thursday, January 16, 2014

  Actual Average Record
Temperature  
Mean Temperature 40 °F 51 °F  
Max Temperature 52 °F 63 °F 82 °F (1928)
Min Temperature 27 °F 39 °F 15 °F (1927)
Degree Days  
Heating Degree Days 26    
Month to date heating degree days  
Since 1 July heating degree days  
Cooling Degree Days 0    
Month to date cooling degree days  
Year to date cooling degree days  
Moisture  
Dew Point 20 °F    
Average Humidity 51    
Maximum Humidity 79    
Minimum Humidity 11    
Precipitation  
Precipitation 0.00 in 0.14 in 2.04 in (2010)
Month to date precipitation 2.96 2.07  
Year to date precipitation 2.96 2.07  
Sea Level Pressure  
Sea Level Pressure 30.14 in    
Wind  
Wind Speed 4 mph (WNW)    
Max Wind Speed 12 mph    
Max Gust Speed -    
Visibility 9 miles    
Events      
T = Trace of Precipitation, MM = Missing Value Source: NWS Daily Summary

Daily Weather History Graph

Daily Weather History Graph

Search for Another Location

Airport or City:

Trip Planner

Search our weather history database for the weather conditions in past years. The results will help you decide how hot, cold, wet, or windy it might be!

Date:

Astronomy

Jan. 16, 2014 Rise Set
Actual Time 7:34 AM EST 6:00 PM EST
Civil Twilight 7:08 AM EST 6:25 PM EST
Nautical Twilight 6:39 AM EST 6:55 PM EST
Astronomical Twilight 6:10 AM EST 7:24 PM EST
Moon 6:43 PM EST (1/16) 7:33 AM EST (1/16)
Length of Visible Light 11h 17m
Length of Day
10h 25m
Full, 100% of the Moon is Illuminated
Jan 16
Full
Jan 24
Last Quarter
Jan 30
New
Feb 6
First Quarter
Feb 14
Full

Hourly Weather History & Observations

Time (EST) Temp. Windchill Dew Point Humidity Pressure Visibility Wind Dir Wind Speed Gust Speed Precip Events Conditions
12:53 AM 37.0 °F 32.4 °F 25.0 °F 62% 30.09 in 10.0 mi WNW 5.8 mph - N/A   Clear
1:53 AM 36.0 °F 31.1 °F 24.1 °F 62% 30.11 in 10.0 mi WNW 5.8 mph - N/A   Clear
2:53 AM 36.0 °F 30.3 °F 21.9 °F 57% 30.13 in 10.0 mi WNW 6.9 mph - N/A   Clear
3:53 AM 34.0 °F 29.8 °F 21.9 °F 61% 30.14 in 10.0 mi NW 4.6 mph - N/A   Clear
4:53 AM 28.9 °F 25.2 °F 23.0 °F 78% 30.14 in 10.0 mi WNW 3.5 mph - N/A   Clear
5:53 AM 30.9 °F - 21.9 °F 69% 30.14 in 10.0 mi Calm Calm - N/A   Clear
6:53 AM 27.0 °F 23.0 °F 21.0 °F 78% 30.15 in 10.0 mi WNW 3.5 mph - N/A   Clear
7:53 AM 28.9 °F - 21.0 °F 72% 30.16 in 10.0 mi Calm Calm - N/A   Clear
8:53 AM 35.1 °F 29.3 °F 19.9 °F 54% 30.19 in 10.0 mi NW 6.9 mph - N/A   Clear
9:53 AM 39.9 °F 35.8 °F 18.0 °F 41% 30.21 in 10.0 mi North 5.8 mph - N/A   Clear
10:53 AM 43.0 °F 39.5 °F 15.1 °F 32% 30.21 in 10.0 mi Variable 5.8 mph - N/A   Clear
11:53 AM 46.0 °F 40.6 °F 12.0 °F 25% 30.18 in 10.0 mi NW 11.5 mph - N/A   Clear
12:53 PM 48.0 °F - 10.0 °F 22% 30.15 in 10.0 mi WNW 5.8 mph - N/A   Clear
1:53 PM 50.0 °F - 10.0 °F 20% 30.13 in 10.0 mi Variable 5.8 mph - N/A   Clear
2:53 PM 51.1 °F - 9.0 °F 18% 30.11 in 10.0 mi West 8.1 mph - N/A   Partly Cloudy
3:53 PM 51.1 °F - 8.1 °F 18% 30.11 in 10.0 mi WSW 5.8 mph - N/A   Partly Cloudy
4:53 PM 50.0 °F - 10.9 °F 21% 30.12 in 9.0 mi West 3.5 mph - N/A   Partly Cloudy
5:53 PM 46.4 °F - 21.2 °F 37% 30.12 in 9.0 mi Calm Calm - N/A   Partly Cloudy
6:53 PM 39.2 °F - 26.6 °F 61% 30.13 in 8.0 mi Calm Calm - N/A   Scattered Clouds
7:53 PM 37.4 °F - 26.6 °F 65% 30.14 in 9.0 mi Calm Calm - N/A   Partly Cloudy
8:53 PM 33.8 °F - 26.6 °F 75% 30.15 in 6.0 mi Calm Calm - N/A   Smoke
9:53 PM 33.8 °F - 24.8 °F 70% 30.16 in 6.0 mi Calm Calm - N/A   Smoke
10:53 PM 34.0 °F - 25.0 °F 70% 30.16 in 7.0 mi Calm Calm - N/A   Clear
11:53 PM 32.0 °F - 26.1 °F 79% 30.16 in 9.0 mi Calm Calm - N/A   Clear